User: anonymous   Login
Location: Palomar Mountain Lodge
(33.3110°N, 116.8495°W)
Time: 13:04:21
(UTC-07:00)
Language:

Cosmos 2184 Rocket - Orbit

View from above orbital plane
View from above orbital plane
View from above satellite
View from above satellite

Ground track
Ground track

The orbit data is extracted from the following two-line orbital elements,

1 21938U 92020B   18173.88973301 +.00000015 +00000-0 +41947-6 0  9992
2 21938 082.9314 085.2574 0027942 236.6648 194.1393 13.75260134313944
Epoch (UTC): 22 June 2018 21:21:12
Eccentricity: 0.0027942
inclination: 82.9314°
perigee height: 960 km
apogee height: 1001 km
right ascension of ascending node: 85.2574°
argument of perigee: 236.6648°
revolutions per day: 13.75260134
mean anomaly at epoch: 194.1393°
orbit number at epoch: 31394

The dashed part of the orbit path shows where the satellite is in the earth's shadow,  

DLR